Temperature
17 17 17 17 17 17 17 17 17 17 17 17 17 17 17 17 17 17 17 17 17 17 17 17 17 17 17 17 17 17 17 17 18 18 18 18 18 18 18 18 18 18 18
17 17 17 17 17 17 17 17 17 17 17 17 17 17 17 17 17 17 17 17 17 17 17 17 17 17 17 17 17 17 17 17 17 17 18 18 18 18 18 18 18 18 18
17 17 17 17 17 17 17 17 17 17 17 17 17 17 17 17 17 17 17 17 17 17 17 17 17 17 17 17 17 17 17 17 17 17 17 18 17 17 18 18 18 18 18
17 17 17 17 17 17 17 17 17 17 17 17 17 17 16 16 17 17 17 17 17 17 17 17 17 17 17 17 17 17 17 17 17 17 17 17 17 17 17 17 17 17 17
17 17 17 17 17 17 17 17 17 17 17 17 17 17 16 16 16 16 16 16 16 16 16 16 16 16 17 17 17 17 17 17 17 17 17 17 17 17 17 17 17 17 17
17 17 17 17 17 17 17 17 17 17 16 16 16 16 16 16 16 16 16 16 16 16 16 16 16 16 16 16 17 17 17 17 17 17 17 17 17 17 17 17 17 17 17
17 17 17 17 17 17 16 16 16 16 16 16 16 16 16 16 16 16 16 16 16 16 16 16 16 16 16 16 16 16 16 16 16 16 17 17 16 16 16 17 17 17 17
17 17 17 17 16 16 16 16 16 16 16 16 16 16 16 16 16 16 16 16 16 16 16 16 16 16 16 16 16 16 16 16 16 16 16 16 16 16 16 16 16 17 17
17 17 17 16 16 16 16 16 16 16 16 16 16 16 16 16 16 16 16 16 16 16 16 16 16 16 16 16 16 16 16 16 16 16 16 16 16 16 16 16 16 16 16
17 17 16 16 16 16 16 16 16 16 16 16 16 16 16 16 16 16 16 16 16 16 16 16 16 16 16 16 16 16 16 16 16 16 16 16 16 16 16 16 16 16 16
17 17 16 16 16 16 16 16 16 16 16 16 16 16 16 16 16 16 16 16 16 16 16 16 16 16 16 16 16 16 16 16 16 16 16 15 15 15 15 16 16 16 16
17 17 17 16 16 16 16 16 16 16 16 16 16 16 16 16 16 16 16 16 16 16 16 16 16 16 16 16 16 16 16 15 16 16 15 15 15 15 15 15 15 15 15
17 17 17 17 16 16 16 16 16 16 16 16 16 16 16 16 16 16 16 16 16 16 16 16 16 16 16 16 16 16 15 15 15 15 15 15 15 15 15 15 15 15 15
17 17 17 17 17 16 16 16 16 16 16 16 16 16 16 16 16 16 16 16 16 16 16 16 16 16 16 16 16 15 15 15 15 15 15 15 15 15 15 15 15 15 15
17 17 17 17 17 17 16 16 16 16 16 16 16 16 16 16 16 16 16 16 16 16 16 16 16 15 15 15 15 15 15 15 15 15 15 15 15 14 14 14 14 15 15
17 17 17 17 17 17 17 17 17 16 16 16 16 16 16 16 16 16 16 16 16 16 16 16 15 15 15 15 15 15 15 15 15 15 15 15 15 14 14 14 14 14 14
18 17 17 17 17 17 17 17 17 17 16 16 16 16 16 16 16 16 16 16 16 16 15 15 15 15 15 15 15 15 15 15 15 14 14 14 14 14 14 14 14 14 14
18 17 17 17 17 17 17 17 17 17 16 16 16 16 16 16 16 16 16 16 16 16 16 15 15 15 15 15 15 15 15 15 15 14 14 14 14 14 14 14 14 14 14
18 18 17 17 17 17 17 17 17 17 17 16 16 16 16 16 16 16 16 16 16 16 16 15 15 15 15 15 15 15 15 15 15 14 14 14 14 14 14 14 14 14 14
18 18 17 17 17 17 17 17 17 17 17 16 16 16 16 16 16 16 16 16 16 16 15 15 15 15 15 15 15 15 15 15 14 14 14 14 14 14 14 14 14 14 14
18 18 18 17 17 17 17 17 17 17 16 16 16 16 16 16 16 16 16 16 16 16 16 15 15 15 15 15 15 15 15 15 14 14 14 14 14 14 14 14 14 14 14
18 18 18 18 17 17 17 17 17 17 17 16 16 16 16 16 16 16 16 16 16 16 16 15 15 15 15 15 15 15 14 14 14 14 14 14 14 14 14 14 13 13 13
18 18 18 18 18 17 17 17 17 17 16 16 16 16 16 16 16 16 16 16 16 16 15 15 15 15 15 15 15 15 15 14 14 14 14 14 14 14 14 13 13 13 13
19 19 18 18 18 17 17 17 17 17 16 16 16 16 16 16 16 16 15 15 16 15 15 15 15 15 15 15 15 15 15 14 14 14 14 14 14 14 13 13 13 13 13
19 19 18 18 18 17 17 17 17 16 16 16 16 16 16 16 16 15 15 15 15 15 15 15 15 15 15 15 15 15 15 14 14 14 14 14 14 13 13 13 13 13 13
19 19 18 18 18 18 17 17 17 16 16 16 16 16 16 16 16 15 15 15 15 15 15 15 15 15 15 15 15 15 14 14 14 14 14 13 13 13 13 13 13 13 13
Wind_Speed
1 1 3 7 8 9 10 10 10 10 10 9 9 9 9 9 9 9 9 9 9 9 9 9 9 9 10 10 10 10 10 10 10 10 10 10 8 8 8 8 7 6 7
2 1 5 8 9 9 10 10 10 9 9 9 8 8 8 9 9 8 9 8 9 9 9 9 9 10 10 11 10 10 11 10 10 10 11 10 9 9 9 8 7 6 7
3 3 6 8 8 9 9 9 9 9 9 9 8 8 8 8 8 8 8 8 9 9 9 9 9 10 11 11 10 10 10 10 10 11 10 9 9 10 9 9 9 8 8
4 4 6 8 9 9 9 9 9 9 9 9 8 9 9 8 8 8 8 8 8 8 8 9 10 10 10 10 10 10 10 10 11 11 10 9 8 10 10 10 10 10 9
5 5 6 8 8 8 9 9 8 8 8 9 9 9 8 8 8 8 8 8 8 8 8 9 9 10 10 9 10 10 11 11 11 11 10 10 9 10 11 10 10 10 9
4 4 5 7 8 8 9 8 8 8 8 8 8 8 8 8 8 8 8 8 8 8 9 9 9 9 9 9 10 10 11 11 11 10 10 9 8 10 11 11 11 10 10
4 3 4 7 8 8 8 8 8 8 7 8 8 8 8 7 7 8 8 8 8 8 8 8 8 9 9 9 10 11 11 12 11 9 9 8 8 10 11 11 11 11 11
4 3 4 6 7 7 7 7 7 7 7 8 8 7 7 8 8 8 8 8 8 8 8 9 9 10 10 10 10 11 11 10 9 8 8 8 9 10 11 11 11 11 11
4 4 4 5 5 6 6 6 7 7 7 7 7 8 8 7 8 8 8 8 8 8 9 9 9 10 10 10 11 11 11 11 9 7 7 7 8 10 10 10 11 11 10
4 3 3 4 5 5 5 5 6 6 6 6 7 8 8 8 7 7 7 7 7 8 8 9 9 10 11 11 11 11 11 10 9 8 7 7 9 10 10 10 11 11 10
2 2 2 3 3 4 3 4 5 6 6 6 6 6 7 7 7 7 7 7 7 8 8 9 9 10 11 11 11 11 10 8 8 7 6 8 9 10 10 10 10 10 10
2 1 1 1 2 3 3 5 5 5 6 5 5 5 5 5 6 6 7 8 8 8 9 9 9 10 9 9 9 10 8 8 7 7 7 9 9 9 10 10 10 10 10
3 2 2 2 1 1 2 3 4 4 4 4 4 4 4 5 6 6 7 7 7 8 8 8 9 8 8 7 7 8 8 7 7 7 8 9 9 10 10 10 11 11 11
4 3 2 2 2 1 1 2 2 2 2 2 3 3 3 3 3 4 5 6 6 6 6 7 7 7 8 8 7 7 7 7 7 8 9 10 10 10 11 11 11 11 11
4 4 3 3 3 1 1 1 2 2 1 1 2 2 3 3 2 3 3 5 5 5 5 5 6 6 6 6 7 6 5 6 7 8 9 11 11 11 11 12 12 11 11
5 4 3 3 3 3 2 1 1 1 2 2 1 1 3 4 3 3 3 3 4 4 5 5 5 4 4 4 5 5 5 5 6 8 9 10 12 11 11 12 12 12 12
5 4 4 4 3 3 2 2 2 1 2 2 2 2 4 5 4 3 3 3 3 4 5 6 5 5 4 4 4 4 5 5 6 7 8 9 9 11 11 11 12 12 12
4 4 4 4 4 3 2 2 2 2 2 2 2 3 4 4 5 4 3 2 3 4 4 3 3 4 4 4 3 3 3 4 5 6 7 8 8 9 10 11 12 12 11
5 5 5 4 5 4 3 3 3 3 2 2 3 3 3 4 5 5 3 3 4 4 3 3 3 3 3 3 3 3 4 4 4 5 5 7 8 8 9 9 11 12 12
4 5 5 4 4 4 4 3 3 3 2 3 2 2 3 4 5 5 4 3 4 3 3 3 4 3 3 3 4 4 4 4 4 4 4 5 7 7 8 8 8 9 11
4 5 5 5 4 4 3 2 2 1 0 1 1 2 3 3 4 5 3 3 3 3 3 3 3 4 3 2 3 4 4 4 4 4 4 4 5 6 7 7 7 8 8
6 6 6 6 6 5 3 3 2 2 1 1 1 2 2 3 4 3 3 3 3 3 3 3 3 3 2 2 3 3 2 4 3 4 3 3 3 5 5 6 7 7 7
6 7 7 6 6 5 4 3 3 3 3 2 1 1 1 2 3 3 3 3 3 3 3 2 3 4 2 2 2 3 3 1 2 3 3 3 3 3 4 5 6 6 6
7 6 6 6 6 5 6 5 5 3 2 2 1 1 1 2 2 3 3 3 3 2 3 2 3 3 4 2 1 2 2 3 2 1 3 3 3 3 3 4 5 6 6
6 6 6 5 4 5 5 6 5 3 2 1 1 1 1 1 2 2 3 3 3 2 2 2 3 3 2 3 2 2 2 2 2 2 1 3 3 3 3 3 4 5 5
4 5 5 6 4 4 5 5 6 5 4 3 2 1 0 0 1 1 2 3 3 3 3 3 3 3 2 3 2 2 2 2 2 2 2 1 2 3 3 3 3 4 4
Wind_Direction
259 267 126 110 104 98 94 94 95 94 91 90 91 92 96 100 98 95 94 92 89 84 80 80 80 77 74 75 74 69 67 68 66 63 60 60 64 72 75 77 78 77 90
152 144 120 112 106 100 95 93 93 92 91 90 90 93 97 103 101 98 97 93 89 82 79 80 80 78 76 73 71 67 64 66 67 64 59 54 57 68 70 74 80 84 86
119 111 113 109 104 101 98 96 94 91 89 88 89 91 98 104 104 104 102 97 92 85 80 79 79 79 75 71 68 66 63 66 69 66 56 45 48 62 66 68 71 75 79
119 111 113 110 106 102 99 99 96 93 89 87 89 90 96 100 102 104 102 98 93 88 83 80 79 78 75 73 69 67 66 67 68 63 51 42 42 58 62 63 65 69 73
109 106 117 115 110 106 101 98 97 93 89 88 89 91 97 100 100 99 98 96 93 88 85 80 78 76 74 73 72 71 71 71 69 60 50 43 42 57 61 61 65 66 67
102 101 118 115 110 106 104 100 96 92 88 87 91 92 95 96 98 95 93 90 88 89 88 82 82 77 76 73 75 76 76 73 67 58 49 44 45 57 61 59 60 62 61
110 101 120 118 113 111 110 106 99 94 90 87 86 85 89 90 92 94 92 87 84 86 84 79 79 79 76 75 77 79 79 77 70 58 49 43 52 61 61 59 58 57 57
113 92 98 112 110 109 109 109 107 100 94 87 83 82 83 83 83 87 90 86 82 83 81 80 80 79 78 78 79 77 77 75 69 57 49 44 57 65 63 61 60 58 55
87 75 66 69 83 94 99 101 96 92 89 84 78 77 77 79 78 79 81 84 82 82 82 82 81 80 80 80 80 77 76 72 63 52 53 49 61 65 65 64 62 59 56
70 61 58 56 58 55 59 84 86 86 83 79 75 72 67 63 64 69 70 76 79 81 83 82 81 80 80 80 78 75 72 67 60 50 44 54 62 63 63 61 59 57 55
98 64 65 58 53 48 49 67 70 73 70 67 66 67 59 50 48 51 59 70 74 78 81 83 83 81 77 72 72 73 69 62 57 45 41 56 63 64 61 58 55 54 52
187 205 106 81 55 44 53 61 58 57 58 58 55 55 55 53 52 54 53 61 66 69 73 74 79 79 75 70 67 69 65 59 52 41 46 58 61 63 60 57 55 53 50
194 207 192 164 117 78 55 65 60 57 58 57 55 59 60 57 52 53 52 51 56 60 63 64 69 72 76 76 70 67 62 57 47 37 41 54 57 59 59 58 56 54 52
180 205 201 169 145 137 98 77 79 68 56 51 49 67 78 64 51 50 55 55 57 63 67 69 72 72 75 74 73 70 60 54 46 38 36 49 54 58 59 58 56 55 53
188 201 196 170 167 162 120 95 97 93 86 69 55 73 108 98 75 64 63 64 62 72 79 78 80 77 73 68 70 75 66 55 50 46 38 42 49 54 57 57 55 54 53
196 195 182 178 177 159 149 155 145 126 114 89 74 105 128 122 109 91 76 71 72 80 87 89 88 84 74 71 65 66 66 59 54 52 42 36 41 49 53 53 53 54 54
198 190 177 180 166 162 172 172 136 116 113 103 99 116 128 127 123 113 96 83 84 93 92 88 80 76 77 73 59 54 61 61 56 50 43 37 35 41 48 48 49 50 50
186 181 183 178 156 156 146 130 105 102 110 105 110 117 122 128 133 125 111 101 105 106 100 91 80 74 69 69 61 43 52 56 54 50 45 41 37 35 37 43 45 46 46
184 177 172 162 147 142 128 115 103 93 88 91 105 114 120 129 136 131 121 113 113 103 91 98 77 86 87 78 75 53 45 47 44 50 45 42 40 38 34 34 37 39 41
175 171 164 149 139 130 113 95 75 66 56 66 85 104 117 130 136 130 120 114 115 103 92 92 91 75 86 88 80 61 43 42 44 42 35 41 39 37 36 33 29 27 32
166 170 170 160 154 138 121 123 116 115 78 52 63 94 113 123 130 130 122 115 116 118 123 118 106 87 67 75 81 49 26 34 44 38 36 40 35 32 36 34 32 29 22
184 184 179 176 170 169 155 144 142 133 112 97 54 60 94 117 125 134 132 131 126 124 121 119 115 106 72 60 107 92 28 360 6 25 27 38 28 32 34 31 29 25 20
191 190 187 184 178 173 152 119 94 71 52 45 34 5 14 108 113 121 134 132 134 139 145 146 135 132 130 59 72 131 135 216 318 349 9 23 18 22 17 20 21 16 15
202 191 182 177 177 169 155 150 148 150 161 197 191 209 27 80 97 122 135 133 132 136 146 159 141 143 140 137 79 67 122 150 141 339 343 359 9 17 5 15 10 7 9
193 182 177 168 171 168 165 164 157 157 170 151 122 107 48 44 77 114 139 132 128 132 142 140 131 137 138 147 146 130 99 77 102 140 295 330 352 352 355 4 5 359 359
175 169 164 161 168 168 166 166 167 169 165 150 159 162 119 29 38 86 128 129 128 128 145 145 137 131 124 122 126 134 146 148 165 151 181 277 319 319 340 358 3 352 351
Height
1527 1528 1528 1529 1529 1529 1529 1529 1529 1529 1529 1530 1529 1530 1530 1530 1531 1531 1532 1532 1532 1533 1533 1533 1533 1533 1534 1534 1534 1534 1534 1534 1534 1534 1533 1533 1533 1533 1533 1533 1533 1533 1534
1528 1528 1529 1530 1530 1530 1530 1530 1530 1530 1530 1530 1530 1530 1531 1531 1531 1532 1533 1533 1533 1534 1534 1534 1535 1535 1535 1535 1535 1535 1535 1535 1535 1535 1534 1534 1534 1534 1534 1534 1534 1534 1534
1529 1530 1530 1531 1531 1531 1531 1531 1531 1531 1532 1531 1531 1531 1531 1532 1532 1533 1533 1534 1534 1535 1535 1536 1536 1536 1536 1536 1536 1536 1536 1536 1536 1536 1536 1536 1535 1535 1535 1535 1535 1535 1535
1530 1531 1531 1532 1532 1532 1532 1532 1533 1533 1533 1533 1533 1533 1533 1533 1533 1534 1535 1535 1535 1536 1536 1537 1537 1537 1537 1538 1538 1538 1538 1538 1537 1537 1537 1537 1537 1537 1536 1536 1536 1536 1536
1531 1532 1532 1532 1533 1533 1533 1533 1534 1534 1534 1534 1534 1534 1534 1534 1535 1535 1536 1536 1537 1537 1538 1538 1538 1539 1539 1539 1539 1539 1539 1539 1539 1539 1538 1538 1538 1538 1537 1537 1537 1537 1537
1532 1533 1533 1534 1534 1534 1535 1535 1535 1535 1535 1535 1535 1535 1535 1536 1536 1537 1537 1538 1538 1538 1539 1539 1540 1540 1540 1540 1540 1540 1540 1540 1540 1540 1539 1539 1539 1538 1538 1538 1538 1538 1537
1533 1534 1535 1535 1535 1536 1536 1536 1537 1537 1537 1537 1537 1537 1537 1538 1538 1538 1539 1539 1539 1540 1540 1541 1541 1541 1541 1541 1542 1542 1542 1542 1541 1541 1540 1540 1540 1539 1539 1539 1539 1538 1538
1535 1535 1536 1536 1537 1537 1538 1538 1538 1538 1538 1538 1538 1539 1539 1539 1540 1540 1540 1541 1541 1542 1542 1542 1542 1543 1543 1543 1543 1543 1543 1543 1543 1542 1542 1541 1541 1540 1540 1540 1539 1539 1539
1537 1537 1538 1538 1538 1539 1539 1540 1540 1540 1540 1541 1541 1541 1541 1541 1541 1542 1542 1542 1543 1543 1543 1544 1544 1544 1545 1545 1545 1545 1545 1544 1544 1543 1543 1542 1542 1541 1541 1540 1540 1539 1539
1538 1539 1539 1540 1540 1541 1541 1541 1542 1542 1542 1542 1542 1543 1543 1543 1543 1543 1544 1544 1544 1545 1545 1546 1546 1546 1546 1547 1546 1546 1546 1546 1545 1545 1544 1543 1543 1542 1541 1541 1540 1540 1539
1540 1540 1541 1541 1542 1542 1543 1543 1543 1544 1544 1544 1544 1544 1545 1545 1545 1545 1546 1546 1546 1547 1547 1547 1548 1548 1548 1548 1548 1548 1548 1547 1547 1546 1545 1544 1544 1543 1542 1542 1541 1540 1540
1541 1542 1542 1543 1543 1544 1544 1545 1545 1545 1545 1546 1546 1546 1546 1546 1547 1547 1547 1548 1548 1548 1549 1549 1549 1550 1550 1550 1550 1549 1549 1549 1548 1547 1546 1546 1545 1544 1543 1543 1542 1541 1541
1542 1543 1543 1544 1545 1545 1546 1546 1547 1547 1547 1547 1548 1548 1548 1548 1548 1549 1549 1549 1550 1550 1550 1551 1551 1551 1551 1551 1551 1551 1550 1550 1549 1548 1548 1547 1546 1545 1545 1544 1543 1542 1542
1543 1544 1544 1545 1546 1546 1547 1547 1548 1548 1549 1549 1549 1549 1549 1550 1550 1550 1551 1551 1551 1552 1552 1552 1552 1552 1553 1552 1552 1552 1552 1551 1551 1550 1549 1548 1548 1547 1546 1545 1544 1543 1543
1543 1544 1545 1546 1547 1548 1548 1549 1549 1550 1550 1550 1550 1551 1551 1551 1551 1552 1552 1552 1553 1553 1553 1553 1554 1554 1554 1554 1554 1554 1553 1553 1552 1552 1551 1550 1549 1548 1547 1546 1545 1545 1544
1543 1545 1546 1547 1548 1548 1549 1550 1550 1551 1551 1551 1552 1552 1552 1553 1553 1553 1553 1553 1554 1554 1554 1555 1555 1555 1555 1555 1555 1555 1555 1554 1554 1553 1553 1552 1551 1550 1549 1548 1547 1546 1545
1544 1545 1546 1547 1548 1549 1550 1551 1551 1552 1552 1552 1553 1553 1553 1554 1554 1554 1554 1555 1555 1555 1555 1556 1556 1556 1556 1556 1556 1556 1556 1556 1555 1555 1554 1553 1552 1551 1550 1549 1548 1547 1546
1544 1545 1547 1548 1549 1550 1550 1551 1552 1552 1553 1553 1554 1554 1554 1555 1555 1555 1555 1555 1556 1556 1556 1556 1557 1557 1557 1557 1557 1557 1557 1557 1556 1556 1555 1554 1553 1553 1552 1551 1549 1548 1546
1544 1545 1547 1548 1549 1550 1551 1552 1552 1553 1553 1554 1554 1555 1555 1555 1556 1556 1556 1556 1556 1557 1557 1557 1557 1557 1558 1558 1558 1558 1558 1558 1557 1557 1556 1556 1555 1554 1553 1552 1550 1549 1548
1544 1545 1547 1548 1549 1550 1551 1552 1553 1553 1554 1554 1555 1555 1555 1556 1556 1556 1556 1556 1557 1557 1557 1557 1558 1558 1558 1558 1559 1559 1559 1559 1558 1558 1557 1557 1556 1555 1554 1553 1551 1550 1548
1543 1544 1546 1547 1549 1550 1551 1552 1553 1553 1554 1554 1555 1555 1556 1556 1556 1556 1556 1557 1557 1557 1557 1558 1558 1558 1558 1559 1559 1559 1560 1559 1559 1559 1558 1558 1557 1556 1555 1553 1552 1551 1549
1541 1543 1545 1547 1548 1549 1551 1552 1553 1553 1554 1554 1555 1555 1556 1556 1556 1556 1556 1557 1557 1557 1557 1558 1558 1558 1559 1559 1559 1559 1560 1561 1560 1559 1559 1558 1558 1557 1556 1554 1553 1552 1550
1540 1541 1543 1545 1547 1549 1550 1551 1552 1553 1554 1554 1555 1555 1556 1556 1556 1556 1556 1557 1557 1557 1557 1558 1558 1558 1558 1559 1559 1560 1560 1560 1560 1560 1559 1559 1558 1557 1556 1555 1554 1552 1551
1538 1540 1542 1544 1546 1548 1549 1550 1551 1552 1552 1553 1554 1555 1555 1555 1556 1556 1556 1556 1557 1557 1557 1557 1558 1558 1558 1559 1559 1559 1560 1560 1560 1560 1560 1559 1558 1557 1556 1555 1554 1553 1552
1536 1538 1540 1543 1545 1546 1548 1549 1550 1551 1552 1553 1553 1554 1554 1555 1555 1555 1556 1556 1556 1556 1557 1557 1557 1558 1558 1558 1558 1558 1559 1559 1559 1559 1559 1559 1558 1557 1556 1556 1554 1553 1552
1534 1537 1539 1541 1543 1545 1546 1548 1549 1550 1551 1551 1552 1553 1553 1554 1554 1554 1555 1556 1556 1556 1556 1556 1557 1557 1557 1557 1558 1558 1558 1558 1558 1558 1558 1557 1557 1557 1556 1555 1554 1553 1552